Home > Weather > Arbon > Past weeks

Flag for Switzerland Weather for the Past 2 Weeks in Arbon, Thurgau, Switzerland

Now
43 °F

Light rain. Passing clouds.


Feels Like: 40 °F
Forecast: 45 / 60 °F
Wind: 5 mph from Southwest

Location: Saint Gallen-Altenrhein

Current Time: May 1, 2016 at 7:01:13 AM

Latest Report: May 1, 2016 at 6:20 AM


Visibility: N/A

Pressure: 29.95 "Hg

Humidity: 87%

Dew Point: 39 °F

Location of ArbonLocation

Historic Weather in Arbon — Graph

°F

Arbon Temperature Yesterday

Maximum temperature yesterday: 64 °F (at 3:20 PM)
Minimum temperature yesterday: 37 °F (at 3:50 AM)
Average temperature yesterday: 51 °F

High & Low Weather Summary for the Past Weeks

 TemperatureHumidityPressure
High66 °F (Apr 22, 3:50 PM)100% (Apr 16, 5:20 AM)30.33 "Hg (Apr 16, 5:20 AM)
Low32 °F (Apr 28, 1:50 AM)37% (Apr 22, 6:20 PM)29.62 "Hg (Apr 16, 11:50 PM)
Average47 °F77%29.97 "Hg
* Reported Apr 16 5:20 AM — May 1 5:20 AM, Arbon, Weather by CustomWeather, © 2016

Note: Actual official high and low records may vary slightly from our data, if they occured in-between our weather recording intervals... More about our weather records

Advertising

Arbon Weather History for the Previous 24 Hours

Scroll right to see more
 ConditionsComfort  
Time TempWeatherWind HumidityBarometerVisibility
5:20 AM
Sun, May 1
45 °FLight rain. Overcast.5 mph87%29.95 "HgN/A
4:20 AM45 °FSprinkles. Overcast.9 mph87%29.92 "HgN/A
3:50 AM45 °FSprinkles. Overcast.6 mph87%29.92 "HgN/A
3:20 AM46 °FOvercast.9 mph82%29.92 "HgN/A
2:50 AM46 °FDrizzle. Overcast.3 mph87%29.92 "HgN/A
2:20 AM46 °FLight rain. Passing clouds.3 mph87%29.92 "HgN/A
1:50 AM46 °FLight rain. Passing clouds.6 mph87%29.92 "HgN/A
1:20 AM46 °FLight rain. Passing clouds.6 mph87%29.95 "HgN/A
12:50 AM46 °FLight rain. Passing clouds.5 mph87%29.95 "HgN/A
12:20 AM46 °FSprinkles. Overcast.10 mph87%29.92 "HgN/A
11:50 PM
Sat, Apr 30
48 °FSprinkles. Partly cloudy.12 mph76%29.95 "HgN/A
11:20 PM48 °FSprinkles. Partly cloudy.9 mph76%29.95 "HgN/A
10:50 PM50 °FPartly cloudy.12 mph71%29.95 "HgN/A
10:20 PM50 °FOvercast.13 mph76%29.95 "HgN/A
9:50 PM50 °FPassing clouds.16 mph76%29.95 "HgN/A
9:20 PM50 °FSprinkles. More clouds than sun.18 mph82%29.92 "HgN/A
8:50 PM50 °FSprinkles. Overcast.16 mph82%29.92 "HgN/A
8:20 PM52 °FLots of rain. More clouds than sun.24 mph77%29.89 "Hg3 mi
7:50 PM61 °FSprinkles. Partly sunny.6 mph45%29.83 "HgN/A
7:20 PM59 °FBroken clouds.3 mph59%29.83 "HgN/A
6:50 PM61 °FPartly sunny.1 mph52%29.83 "HgN/A
6:20 PM63 °FPartly sunny.2 mph39%29.83 "HgN/A
5:50 PM64 °FPartly sunny.No wind46%29.83 "HgN/A
5:20 PM64 °FPartly sunny.No wind37%29.86 "HgN/A
4:50 PM64 °FPartly sunny.3 mph40%29.86 "HgN/A
4:20 PM64 °FPartly sunny.2 mph46%29.86 "HgN/A
3:50 PM59 °FPartly sunny.6 mph51%29.89 "HgN/A
3:20 PM64 °FPartly sunny.1 mph37%29.89 "HgN/A
2:50 PM61 °FPartly sunny.5 mph45%29.89 "HgN/A
2:20 PM61 °FPartly sunny.5 mph42%29.92 "HgN/A
1:50 PM59 °FScattered clouds.6 mph45%29.92 "HgN/A
1:20 PM59 °FSunny.7 mph51%29.92 "Hg10 mi
12:20 PM57 °FPassing clouds.6 mph59%29.95 "HgN/A
11:50 AM54 °FSunny.8 mph67%29.98 "Hg10 mi
11:20 AM54 °FPassing clouds.5 mph58%29.98 "HgN/A
10:20 AM52 °FSunny.2 mph67%30.01 "Hg10 mi
9:50 AM50 °FSunny.2 mph67%30.01 "Hg10 mi
9:20 AM48 °FSunny.2 mph66%30.04 "Hg10 mi
8:50 AM48 °FSunny.1 mph76%30.04 "Hg10 mi
8:20 AM46 °FSunny.5 mph76%30.04 "Hg10 mi
7:50 AM43 °FSunny.6 mph87%30.04 "Hg10 mi
7:20 AM41 °FSunny.3 mph93%30.04 "Hg10 mi
Weather by CustomWeather, © 2016

See weather overviewHow to use our weather pages